OKEAN-0
1 25860U 99039A 08009.53649671 .00000075 00000-0 18807-4 0 02598
2 25860 097.7393 007.2450 0001881 070.7370 289.4040 14.73495615455883
NOAA-16
1 26536U 00055A 08010.46179933 -.00000211 00000-0 -89147-4 0 7574
2 26536 099.1416 356.2751 0009996 314.6127 045.4234 14.12463718376364
NOAA-17
1 27453U 02032A 08009.82826073 .00000025 00000-0 29523-4 0 07553
2 27453 098.5581 078.9259 0011527 207.8436 152.2111 14.23939476288127
NOAA-18
1 28654U 05018A 08009.87410704 .00000100 00000-0 79634-4 0 02679
2 28654 098.8530 312.9025 0015062 046.3082 313.9313 14.11127724136002
HUBBLE
1 20580U 90037B 08010.82652910 .00000454 00000-0 22344-4 0 450
2 20580 028.4701 276.0489 0004226 146.0216 214.0644 15.00325609771174
UARS
1 21701U 91063B 08009.84228450 .00008641 00000-0 13818-3 0 02828
2 21701 056.9742 135.8838 0083730 228.8731 130.5079 15.50181569897778
PO-34
1 25520U 98064B 08010.59784711 .00000606 00000-0 20063-4 0 9067
2 25520 028.4592 160.4628 0004892 356.9075 003.1491 15.17114065509059
ISS
1 25544U 98067A 08011.03576389 .00028406 00000-0 16177-3 0 6881
2 25544 051.6403 111.9399 0002650 049.5565 310.6642 15.78714598523570
OO-38
1 26063U 00004C 08009.71498467 -.00000007 00000-0 18136-4 0 1065
2 26063 100.2149 055.3831 0036559 298.9642 060.7879 14.35824753416683
UWE-1
1 28892U 05043C 08009.42573831 .00000074 00000-0 25247-4 0 09446
2 28892 098.1148 266.7228 0017006 185.0471 175.0546 14.59580493117291
CO-58
1 28895U 05043F 08010.42646235 .00000034 00000-0 16859-4 0 9197
2 28895 098.1163 267.9949 0017564 182.2697 177.8407 14.59623241117321
NCUBE2
1 28897U 05043H 08010.27226604 .00000124 00000-0 35594-4 0 4480
2 28897 098.1131 267.7820 0016920 184.4649 175.6396 14.59790823109583
FCAL
1 29667U 06055J 08010.65671676 .00039380 11997-4 87565-4 0 6579
2 29667 051.6318 079.2835 0010239 076.4291 283.7858 15.98616253 61064
FALCON
1 30776U 07006E 08009.54259183 .00000545 00000-0 42963-4 0 02311
2 30776 035.4341 041.5969 0000670 030.1214 329.9541 15.02846898046119
MAST
1 31126U 07012K 08009.24695377 .00000341 00000-0 87629-4 0 02282
2 31126 098.0616 079.9217 0095857 107.5825 253.5891 14.53391948038788
CAPE1
1 31130U 07012P 08009.93240846 -.00000034 00000-0 27613-5 0 02143
2 31130 098.0599 079.9539 0103572 106.9963 254.2588 14.51919809038613
